Time,TemperatureF,DewpointF,PressureIn,WindDirection,WindDirectionDegrees,WindSpeedMPH,WindSpeedGustMPH,Humidity,HourlyPrecipIn,Conditions,Clouds,dailyrainin,SoftwareType,DateUTC
2013-07-17 00:01:00,58.7,55.2,29.97,NNW,346,0.0,7.0,88,0.00,,,0.00,WeatherTracker,2013-07-17 07:01:00,
2013-07-17 00:06:00,58.7,55.2,29.97,NW,325,6.0,6.0,88,0.00,,,0.00,WeatherTracker,2013-07-17 07:06:00,
2013-07-17 00:11:00,58.7,55.2,29.97,North,349,9.0,9.0,88,0.00,,,0.00,WeatherTracker,2013-07-17 07:11:00,
2013-07-17 00:16:00,58.7,54.8,29.97,North,10,3.0,14.0,87,0.00,,,0.00,WeatherTracker,2013-07-17 07:16:00,
2013-07-17 00:21:00,58.7,54.8,29.97,NNE,27,5.0,14.0,87,0.00,,,0.00,WeatherTracker,2013-07-17 07:21:00,
2013-07-17 00:26:00,58.7,54.8,29.97,NNE,15,4.0,9.0,87,0.00,,,0.00,WeatherTracker,2013-07-17 07:26:00,
2013-07-17 00:31:00,58.7,54.8,29.97,NNE,15,5.0,9.0,87,0.00,,,0.00,WeatherTracker,2013-07-17 07:31:00,
2013-07-17 00:36:00,58.8,54.9,29.97,North,9,6.0,10.0,87,0.00,,,0.00,WeatherTracker,2013-07-17 07:36:00,
2013-07-17 00:41:00,58.7,54.8,29.97,NNE,30,2.0,10.0,87,0.00,,,0.00,WeatherTracker,2013-07-17 07:41:00,
2013-07-17 00:46:00,58.8,54.9,29.97,North,355,8.0,10.0,87,0.00,,,0.00,WeatherTracker,2013-07-17 07:46:00,
2013-07-17 00:51:00,58.9,55.0,29.97,North,5,1.0,9.0,87,0.00,,,0.00,WeatherTracker,2013-07-17 07:51:00,
2013-07-17 00:56:00,58.9,54.7,29.97,North,5,3.0,9.0,86,0.00,,,0.00,WeatherTracker,2013-07-17 07:56:00,
2013-07-17 01:01:00,58.9,54.7,29.97,NNE,32,4.0,6.0,86,0.00,,,0.00,WeatherTracker,2013-07-17 08:01:00,
2013-07-17 01:06:00,58.9,54.7,29.97,NNE,32,3.0,6.0,86,0.00,,,0.00,WeatherTracker,2013-07-17 08:06:00,
2013-07-17 01:11:00,59.0,54.8,29.97,North,350,0.0,5.0,86,0.00,,,0.00,WeatherTracker,2013-07-17 08:11:00,
2013-07-17 01:16:00,58.9,54.7,29.97,North,350,3.0,5.0,86,0.00,,,0.00,WeatherTracker,2013-07-17 08:16:00,
2013-07-17 01:21:00,58.9,54.7,29.97,North,355,2.0,6.0,86,0.00,,,0.00,WeatherTracker,2013-07-17 08:21:00,
2013-07-17 01:27:00,58.9,54.7,29.97,NNE,17,0.0,6.0,86,0.00,,,0.00,WeatherTracker,2013-07-17 08:27:00,
2013-07-17 01:32:00,59.0,54.8,29.98,NNE,17,1.0,4.0,86,0.00,,,0.00,WeatherTracker,2013-07-17 08:32:00,
2013-07-17 01:37:00,59.0,54.8,29.98,NW,323,3.0,9.0,86,0.00,,,0.00,WeatherTracker,2013-07-17 08:37:00,
2013-07-17 01:42:00,59.0,55.1,29.98,WNW,302,3.0,9.0,87,0.00,,,0.00,WeatherTracker,2013-07-17 08:42:00,
2013-07-17 01:43:00,59.0,55.1,29.98,WNW,302,3.0,9.0,87,0.00,,,0.00,WeatherTracker,2013-07-17 08:43:00,
2013-07-17 01:48:00,59.0,55.1,29.98,WNW,291,5.0,7.0,87,0.00,,,0.00,WeatherTracker,2013-07-17 08:48:00,
2013-07-17 01:53:00,58.9,55.0,29.98,WNW,294,0.0,7.0,87,0.00,,,0.00,WeatherTracker,2013-07-17 08:53:00,
2013-07-17 01:58:00,58.8,54.6,29.98,WNW,294,3.0,6.0,86,0.00,,,0.00,WeatherTracker,2013-07-17 08:58:00,
2013-07-17 02:03:00,58.8,54.6,29.98,WNW,294,2.0,5.0,86,0.00,,,0.00,WeatherTracker,2013-07-17 09:03:00,
2013-07-17 02:08:00,58.7,54.5,29.98,WNW,294,0.0,4.0,86,0.00,,,0.00,WeatherTracker,2013-07-17 09:08:00,
2013-07-17 02:13:00,58.7,54.5,29.98,WNW,294,0.0,2.0,86,0.00,,,0.00,WeatherTracker,2013-07-17 09:13:00,
2013-07-17 02:18:00,58.7,54.5,29.98,WNW,294,0.0,2.0,86,0.00,,,0.00,WeatherTracker,2013-07-17 09:18:00,
2013-07-17 02:23:00,58.8,54.9,29.98,WNW,294,1.0,3.0,87,0.00,,,0.00,WeatherTracker,2013-07-17 09:23:00,
2013-07-17 02:28:00,58.8,54.9,29.98,WNW,297,0.0,5.0,87,0.00,,,0.00,WeatherTracker,2013-07-17 09:28:00,
2013-07-17 02:33:00,58.8,54.9,29.98,WNW,296,3.0,5.0,87,0.00,,,0.00,WeatherTracker,2013-07-17 09:33:00,
2013-07-17 02:38:00,58.9,55.0,29.98,WNW,297,3.0,4.0,87,0.00,,,0.00,WeatherTracker,2013-07-17 09:38:00,
2013-07-17 02:43:00,58.9,55.0,29.98,NW,306,4.0,5.0,87,0.00,,,0.00,WeatherTracker,2013-07-17 09:43:00,
2013-07-17 02:48:00,59.0,55.1,29.98,NW,306,4.0,5.0,87,0.00,,,0.00,WeatherTracker,2013-07-17 09:48:00,
2013-07-17 02:53:00,59.0,55.1,29.98,NW,307,3.0,5.0,87,0.00,,,0.00,WeatherTracker,2013-07-17 09:53:00,
2013-07-17 02:58:00,58.9,55.0,29.98,NW,307,2.0,5.0,87,0.00,,,0.00,WeatherTracker,2013-07-17 09:58:00,
2013-07-17 03:04:00,58.9,55.0,29.98,NW,307,2.0,5.0,87,0.00,,,0.00,WeatherTracker,2013-07-17 10:04:00,
2013-07-17 03:09:00,59.0,55.1,29.98,NW,307,1.0,5.0,87,0.00,,,0.00,WeatherTracker,2013-07-17 10:09:00,
2013-07-17 03:14:00,59.0,55.1,29.98,NW,307,2.0,4.0,87,0.00,,,0.00,WeatherTracker,2013-07-17 10:14:00,
2013-07-17 03:19:00,59.0,55.1,29.98,NW,307,2.0,5.0,87,0.00,,,0.00,WeatherTracker,2013-07-17 10:19:00,
2013-07-17 03:24:00,58.9,55.0,29.98,NW,307,3.0,5.0,87,0.00,,,0.00,WeatherTracker,2013-07-17 10:24:00,
2013-07-17 03:29:00,58.9,54.7,29.97,NNW,333,3.0,9.0,86,0.00,,,0.00,WeatherTracker,2013-07-17 10:29:00,
2013-07-17 03:34:00,58.8,54.6,29.97,NNW,336,2.0,9.0,86,0.00,,,0.00,WeatherTracker,2013-07-17 10:34:00,
2013-07-17 03:39:00,58.7,54.8,29.97,NNW,345,3.0,8.0,87,0.00,,,0.00,WeatherTracker,2013-07-17 10:39:00,
2013-07-17 03:44:00,58.7,54.8,29.97,NNW,337,0.0,8.0,87,0.00,,,0.00,WeatherTracker,2013-07-17 10:44:00,
2013-07-17 03:49:00,58.7,54.8,29.97,NNW,340,2.0,6.0,87,0.00,,,0.00,WeatherTracker,2013-07-17 10:49:00,
2013-07-17 03:54:00,58.7,54.8,29.97,NNW,340,2.0,5.0,87,0.00,,,0.00,WeatherTracker,2013-07-17 10:54:00,
2013-07-17 03:59:00,58.7,54.8,29.97,NNW,340,0.0,5.0,87,0.00,,,0.00,WeatherTracker,2013-07-17 10:59:00,
2013-07-17 04:04:00,58.7,54.8,29.97,North,349,4.0,4.0,87,0.00,,,0.00,WeatherTracker,2013-07-17 11:04:00,
2013-07-17 04:09:00,58.7,54.8,29.97,North,350,1.0,6.0,87,0.00,,,0.00,WeatherTracker,2013-07-17 11:09:00,
2013-07-17 04:14:00,58.7,55.2,29.97,North,355,4.0,7.0,88,0.00,,,0.00,WeatherTracker,2013-07-17 11:14:00,
2013-07-17 04:19:00,58.6,55.1,29.97,North,9,3.0,7.0,88,0.00,,,0.00,WeatherTracker,2013-07-17 11:19:00,
2013-07-17 04:24:00,58.6,55.1,29.97,North,9,2.0,7.0,88,0.00,,,0.00,WeatherTracker,2013-07-17 11:24:00,
2013-07-17 04:29:00,58.6,55.1,29.97,North,9,5.0,5.0,88,0.00,,,0.00,WeatherTracker,2013-07-17 11:29:00,
2013-07-17 04:34:00,58.5,54.6,29.97,NNE,30,7.0,7.0,87,0.00,,,0.00,WeatherTracker,2013-07-17 11:34:00,
2013-07-17 04:39:00,58.4,54.5,29.97,North,11,7.0,10.0,87,0.00,,,0.00,WeatherTracker,2013-07-17 11:39:00,
2013-07-17 04:44:00,58.4,54.5,29.98,North,360,5.0,11.0,87,0.00,,,0.00,WeatherTracker,2013-07-17 11:44:00,
2013-07-17 04:49:00,58.4,54.5,29.98,NNE,22,5.0,11.0,87,0.00,,,0.00,WeatherTracker,2013-07-17 11:49:00,
2013-07-17 04:55:00,58.4,54.5,29.98,NE,45,3.0,7.0,87,0.00,,,0.00,WeatherTracker,2013-07-17 11:55:00,
2013-07-17 04:59:00,58.3,54.4,29.98,NE,38,3.0,7.0,87,0.00,,,0.00,WeatherTracker,2013-07-17 11:59:00,
2013-07-17 05:05:00,58.3,54.4,29.98,NE,47,5.0,7.0,87,0.00,,,0.00,WeatherTracker,2013-07-17 12:05:00,
2013-07-17 05:10:00,58.2,54.3,29.98,NNE,24,3.0,7.0,87,0.00,,,0.00,WeatherTracker,2013-07-17 12:10:00,
2013-07-17 05:15:00,58.1,54.2,29.98,NNE,28,6.0,8.0,87,0.00,,,0.00,WeatherTracker,2013-07-17 12:15:00,
2013-07-17 05:20:00,58.1,54.2,29.98,NNE,30,3.0,8.0,87,0.00,,,0.00,WeatherTracker,2013-07-17 12:20:00,
2013-07-17 05:25:00,58.0,54.5,29.98,NNW,337,5.0,7.0,88,0.00,,,0.00,WeatherTracker,2013-07-17 12:25:00,
2013-07-17 05:30:00,58.1,54.2,29.98,NNE,16,4.0,7.0,87,0.00,,,0.00,WeatherTracker,2013-07-17 12:30:00,
2013-07-17 05:35:00,58.1,54.2,29.98,NNE,17,0.0,7.0,87,0.00,,,0.00,WeatherTracker,2013-07-17 12:35:00,
2013-07-17 05:40:00,58.1,54.2,29.98,NNE,30,3.0,6.0,87,0.00,,,0.00,WeatherTracker,2013-07-17 12:40:00,
2013-07-17 05:45:00,58.1,54.2,29.98,NNE,30,3.0,6.0,87,0.00,,,0.00,WeatherTracker,2013-07-17 12:45:00,
2013-07-17 05:50:00,58.0,54.5,29.98,NNE,30,3.0,5.0,88,0.00,,,0.00,WeatherTracker,2013-07-17 12:50:00,
2013-07-17 05:55:00,58.1,54.2,29.98,NNE,30,1.0,4.0,87,0.00,,,0.00,WeatherTracker,2013-07-17 12:55:00,
2013-07-17 06:00:00,58.1,54.6,29.99,NNE,30,2.0,3.0,88,0.00,,,0.00,WeatherTracker,2013-07-17 13:00:00,
2013-07-17 06:05:00,58.1,54.6,29.99,NNE,30,0.0,3.0,88,0.00,,,0.00,WeatherTracker,2013-07-17 13:05:00,
2013-07-17 06:10:00,58.1,54.6,29.99,NNE,30,0.0,3.0,88,0.00,,,0.00,WeatherTracker,2013-07-17 13:10:00,
2013-07-17 06:15:00,58.1,54.2,29.99,NNE,30,0.0,0.0,87,0.00,,,0.00,WeatherTracker,2013-07-17 13:15:00,
2013-07-17 06:20:00,58.1,54.6,29.99,NNE,30,0.0,0.0,88,0.00,,,0.00,WeatherTracker,2013-07-17 13:20:00,
2013-07-17 06:25:00,58.0,54.5,29.99,NNE,30,3.0,3.0,88,0.00,,,0.00,WeatherTracker,2013-07-17 13:25:00,
2013-07-17 06:30:00,58.0,54.5,29.99,NNE,30,5.0,5.0,88,0.00,,,0.00,WeatherTracker,2013-07-17 13:30:00,
2013-07-17 06:35:00,57.9,54.4,29.99,NNE,30,2.0,5.0,88,0.00,,,0.00,WeatherTracker,2013-07-17 13:35:00,
2013-07-17 06:41:00,57.9,54.4,29.99,East,82,3.0,6.0,88,0.00,,,0.00,WeatherTracker,2013-07-17 13:41:00,
2013-07-17 06:46:00,57.9,54.4,30.00,East,82,0.0,6.0,88,0.00,,,0.00,WeatherTracker,2013-07-17 13:46:00,
2013-07-17 06:51:00,58.0,54.5,30.00,SW,217,5.0,8.0,88,0.00,,,0.00,WeatherTracker,2013-07-17 13:51:00,
2013-07-17 06:56:00,57.8,54.3,30.00,SW,226,0.0,8.0,88,0.00,,,0.00,WeatherTracker,2013-07-17 13:56:00,
2013-07-17 07:01:00,57.8,54.3,30.00,SW,226,0.0,7.0,88,0.00,,,0.00,WeatherTracker,2013-07-17 14:01:00,
2013-07-17 07:06:00,57.8,54.3,30.00,SW,225,2.0,3.0,88,0.00,,,0.00,WeatherTracker,2013-07-17 14:06:00,
2013-07-17 07:11:00,57.8,54.3,30.00,ESE,113,3.0,4.0,88,0.00,,,0.00,WeatherTracker,2013-07-17 14:11:00,
2013-07-17 07:16:00,57.8,54.3,30.01,ESE,109,3.0,4.0,88,0.00,,,0.00,WeatherTracker,2013-07-17 14:16:00,
2013-07-17 07:21:00,57.8,54.3,30.01,ESE,109,1.0,4.0,88,0.00,,,0.00,WeatherTracker,2013-07-17 14:21:00,
2013-07-17 07:26:00,57.8,54.3,30.01,ENE,71,4.0,5.0,88,0.00,,,0.00,WeatherTracker,2013-07-17 14:26:00,
2013-07-17 07:31:00,57.8,54.3,30.01,NNE,15,3.0,5.0,88,0.00,,,0.00,WeatherTracker,2013-07-17 14:31:00,
2013-07-17 07:36:00,57.9,54.4,30.01,NNE,15,3.0,5.0,88,0.00,,,0.00,WeatherTracker,2013-07-17 14:36:00,
2013-07-17 07:41:00,58.0,54.5,30.01,NNE,15,4.0,5.0,88,0.00,,,0.00,WeatherTracker,2013-07-17 14:41:00,
2013-07-17 07:46:00,58.1,54.2,30.01,NNE,15,2.0,5.0,87,0.00,,,0.00,WeatherTracker,2013-07-17 14:46:00,
2013-07-17 07:51:00,58.2,54.7,30.01,NNE,15,1.0,5.0,88,0.00,,,0.00,WeatherTracker,2013-07-17 14:51:00,
2013-07-17 07:56:00,58.4,54.5,30.01,NNE,15,0.0,3.0,87,0.00,,,0.00,WeatherTracker,2013-07-17 14:56:00,
2013-07-17 08:01:00,58.5,55.0,30.02,NNE,15,0.0,3.0,88,0.00,,,0.00,WeatherTracker,2013-07-17 15:01:00,
2013-07-17 08:06:00,58.7,54.8,30.02,NNE,15,0.0,2.0,87,0.00,,,0.00,WeatherTracker,2013-07-17 15:06:00,
2013-07-17 08:11:00,58.9,55.0,30.02,NNE,15,0.0,2.0,87,0.00,,,0.00,WeatherTracker,2013-07-17 15:11:00,
2013-07-17 08:17:00,59.1,55.2,30.02,NNE,15,0.0,1.0,87,0.00,,,0.00,WeatherTracker,2013-07-17 15:17:00,
2013-07-17 08:22:00,59.0,55.1,30.02,NNE,15,2.0,4.0,87,0.00,,,0.00,WeatherTracker,2013-07-17 15:22:00,
2013-07-17 08:27:00,58.9,54.7,30.02,NNE,15,0.0,4.0,86,0.00,,,0.00,WeatherTracker,2013-07-17 15:27:00,
2013-07-17 08:32:00,58.9,54.7,30.02,NNE,15,3.0,4.0,86,0.00,,,0.00,WeatherTracker,2013-07-17 15:32:00,
2013-07-17 08:37:00,58.9,55.0,30.02,WNW,290,4.0,6.0,87,0.00,,,0.00,WeatherTracker,2013-07-17 15:37:00,
2013-07-17 08:42:00,58.7,54.8,30.02,WSW,254,5.0,6.0,87,0.00,,,0.00,WeatherTracker,2013-07-17 15:42:00,
2013-07-17 08:47:00,58.4,54.5,30.03,NW,309,2.0,7.0,87,0.00,,,0.00,WeatherTracker,2013-07-17 15:47:00,
2013-07-17 08:52:00,58.6,54.7,30.03,NNW,331,2.0,7.0,87,0.00,,,0.00,WeatherTracker,2013-07-17 15:52:00,
2013-07-17 08:57:00,58.6,54.7,30.03,NNW,331,0.0,6.0,87,0.00,,,0.00,WeatherTracker,2013-07-17 15:57:00,
2013-07-17 09:02:00,58.7,54.8,30.04,NNW,331,1.0,5.0,87,0.00,,,0.00,WeatherTracker,2013-07-17 16:02:00,
2013-07-17 09:07:00,58.9,55.0,30.04,West,277,3.0,5.0,87,0.00,,,0.00,WeatherTracker,2013-07-17 16:07:00,
2013-07-17 09:12:00,58.8,54.9,30.04,NW,309,3.0,6.0,87,0.00,,,0.00,WeatherTracker,2013-07-17 16:12:00,
2013-07-17 09:17:00,58.8,54.9,30.04,NW,309,3.0,6.0,87,0.00,,,0.00,WeatherTracker,2013-07-17 16:17:00,
2013-07-17 09:22:00,59.1,55.2,30.04,NW,315,4.0,4.0,87,0.00,,,0.00,WeatherTracker,2013-07-17 16:22:00,
2013-07-17 09:27:00,59.0,55.1,30.04,WNW,291,4.0,6.0,87,0.00,,,0.00,WeatherTracker,2013-07-17 16:27:00,
2013-07-17 09:32:00,59.0,55.1,30.04,WNW,291,0.0,6.0,87,0.00,,,0.00,WeatherTracker,2013-07-17 16:32:00,
2013-07-17 09:37:00,59.3,55.4,30.04,NNW,337,4.0,6.0,87,0.00,,,0.00,WeatherTracker,2013-07-17 16:37:00,
2013-07-17 09:42:00,59.5,55.6,30.04,NNW,338,1.0,5.0,87,0.00,,,0.00,WeatherTracker,2013-07-17 16:42:00,
2013-07-17 09:47:00,59.6,55.4,30.04,NNW,341,2.0,5.0,86,0.00,,,0.00,WeatherTracker,2013-07-17 16:47:00,
2013-07-17 09:53:00,59.7,55.5,30.04,NNW,341,3.0,3.0,86,0.00,,,0.00,WeatherTracker,2013-07-17 16:53:00,
2013-07-17 09:58:00,59.7,55.5,30.04,NNW,345,1.0,4.0,86,0.00,,,0.00,WeatherTracker,2013-07-17 16:58:00,
2013-07-17 10:03:00,59.8,55.6,30.04,NNW,345,2.0,4.0,86,0.00,,,0.00,WeatherTracker,2013-07-17 17:03:00,
2013-07-17 10:08:00,59.4,55.2,30.04,NNW,345,1.0,4.0,86,0.00,,,0.00,WeatherTracker,2013-07-17 17:08:00,
2013-07-17 10:13:00,59.2,55.0,30.04,NNW,347,3.0,4.0,86,0.00,,,0.00,WeatherTracker,2013-07-17 17:13:00,
2013-07-17 10:18:00,59.1,55.2,30.04,ESE,121,5.0,6.0,87,0.00,,,0.00,WeatherTracker,2013-07-17 17:18:00,
2013-07-17 10:23:00,59.0,55.8,30.04,ESE,123,6.0,6.0,89,0.00,,,0.00,WeatherTracker,2013-07-17 17:23:00,
2013-07-17 10:28:00,59.0,55.1,30.04,ESE,123,5.0,6.0,87,0.00,,,0.00,WeatherTracker,2013-07-17 17:28:00,
2013-07-17 10:33:00,59.0,55.1,30.04,SE,124,3.0,6.0,87,0.00,,,0.00,WeatherTracker,2013-07-17 17:33:00,
2013-07-17 10:38:00,59.2,55.3,30.04,SE,124,3.0,6.0,87,0.00,,,0.00,WeatherTracker,2013-07-17 17:38:00,
2013-07-17 10:43:00,59.5,55.9,30.04,ESE,123,3.0,5.0,88,0.00,,,0.00,WeatherTracker,2013-07-17 17:43:00,
2013-07-17 10:48:00,59.8,55.9,30.04,ESE,121,0.0,5.0,87,0.00,,,0.00,WeatherTracker,2013-07-17 17:48:00,
2013-07-17 10:53:00,60.1,56.2,30.04,SSW,199,3.0,10.0,87,0.00,,,0.00,WeatherTracker,2013-07-17 17:53:00,
2013-07-17 10:58:00,60.2,56.3,30.04,WSW,251,3.0,10.0,87,0.00,,,0.00,WeatherTracker,2013-07-17 17:58:00,
2013-07-17 11:03:00,60.3,56.1,30.04,WSW,237,1.0,9.0,86,0.00,,,0.00,WeatherTracker,2013-07-17 18:03:00,
2013-07-17 11:08:00,60.1,55.9,30.04,SW,219,8.0,13.0,86,0.00,,,0.00,WeatherTracker,2013-07-17 18:08:00,
2013-07-17 11:13:00,59.9,56.0,30.04,SW,234,8.0,13.0,87,0.00,,,0.00,WeatherTracker,2013-07-17 18:13:00,
2013-07-17 11:19:00,60.1,56.2,30.04,WSW,242,11.0,15.0,87,0.00,,,0.00,WeatherTracker,2013-07-17 18:19:00,
2013-07-17 11:24:00,60.4,56.5,30.04,NNW,333,1.0,15.0,87,0.00,,,0.00,WeatherTracker,2013-07-17 18:24:00,
2013-07-17 11:29:00,60.6,56.4,30.04,West,259,4.0,12.0,86,0.00,,,0.00,WeatherTracker,2013-07-17 18:29:00,
2013-07-17 11:34:00,60.5,56.0,30.04,West,259,6.0,11.0,85,0.00,,,0.00,WeatherTracker,2013-07-17 18:34:00,
2013-07-17 11:39:00,60.3,56.1,30.04,WSW,250,11.0,15.0,86,0.00,,,0.00,WeatherTracker,2013-07-17 18:39:00,
2013-07-17 11:44:00,60.3,56.1,30.04,West,265,6.0,15.0,86,0.00,,,0.00,WeatherTracker,2013-07-17 18:44:00,
2013-07-17 11:49:00,60.5,56.3,30.04,WSW,240,6.0,13.0,86,0.00,,,0.00,WeatherTracker,2013-07-17 18:49:00,
2013-07-17 11:54:00,60.9,56.4,30.04,WSW,240,4.0,13.0,85,0.00,,,0.00,WeatherTracker,2013-07-17 18:54:00,
2013-07-17 11:59:00,61.7,57.1,30.04,West,281,9.0,13.0,85,0.00,,,0.00,WeatherTracker,2013-07-17 18:59:00,
2013-07-17 12:04:00,61.9,57.3,30.04,NNW,344,5.0,13.0,85,0.00,,,0.00,WeatherTracker,2013-07-17 19:04:00,
2013-07-17 12:09:00,62.4,57.2,30.04,West,273,6.0,14.0,83,0.00,,,0.00,WeatherTracker,2013-07-17 19:09:00,
2013-07-17 12:14:00,62.4,56.8,30.04,WNW,288,9.0,14.0,82,0.00,,,0.00,WeatherTracker,2013-07-17 19:14:00,
2013-07-17 12:19:00,63.3,57.7,30.04,WNW,298,9.0,15.0,82,0.00,,,0.00,WeatherTracker,2013-07-17 19:19:00,
2013-07-17 12:24:00,63.2,57.3,30.04,West,267,10.0,15.0,81,0.00,,,0.00,WeatherTracker,2013-07-17 19:24:00,
2013-07-17 12:29:00,62.9,57.0,30.04,West,260,9.0,15.0,81,0.00,,,0.00,WeatherTracker,2013-07-17 19:29:00,
2013-07-17 12:35:00,62.8,56.9,30.04,West,269,6.0,14.0,81,0.00,,,0.00,WeatherTracker,2013-07-17 19:35:00,
2013-07-17 12:40:00,63.0,57.4,30.04,West,273,10.0,14.0,82,0.00,,,0.00,WeatherTracker,2013-07-17 19:40:00,
2013-07-17 12:45:00,63.1,57.5,30.03,NW,326,5.0,14.0,82,0.00,,,0.00,WeatherTracker,2013-07-17 19:45:00,
2013-07-17 12:50:00,63.5,57.6,30.03,WSW,258,5.0,14.0,81,0.00,,,0.00,WeatherTracker,2013-07-17 19:50:00,
2013-07-17 12:55:00,63.3,57.4,30.03,WSW,250,6.0,14.0,81,0.00,,,0.00,WeatherTracker,2013-07-17 19:55:00,
2013-07-17 13:00:00,63.6,57.7,30.02,West,262,5.0,14.0,81,0.00,,,0.00,WeatherTracker,2013-07-17 20:00:00,
2013-07-17 13:05:00,64.0,58.0,30.02,WNW,293,6.0,15.0,81,0.00,,,0.00,WeatherTracker,2013-07-17 20:05:00,
2013-07-17 13:10:00,64.8,58.1,30.02,WNW,297,9.0,15.0,79,0.00,,,0.00,WeatherTracker,2013-07-17 20:10:00,
2013-07-17 13:15:00,64.3,57.6,30.02,WSW,258,11.0,18.0,79,0.00,,,0.00,WeatherTracker,2013-07-17 20:15:00,
2013-07-17 13:20:00,64.2,57.9,30.02,West,259,9.0,18.0,80,0.00,,,0.00,WeatherTracker,2013-07-17 20:20:00,
2013-07-17 13:25:00,64.3,57.6,30.02,WSW,245,10.0,17.0,79,0.00,,,0.00,WeatherTracker,2013-07-17 20:25:00,
2013-07-17 13:30:00,64.3,57.6,30.02,WNW,295,6.0,17.0,79,0.00,,,0.00,WeatherTracker,2013-07-17 20:30:00,
2013-07-17 13:35:00,64.3,57.6,30.02,West,261,8.0,16.0,79,0.00,,,0.00,WeatherTracker,2013-07-17 20:35:00,
2013-07-17 13:40:00,64.1,57.4,30.02,WSW,256,13.0,16.0,79,0.00,,,0.00,WeatherTracker,2013-07-17 20:40:00,
2013-07-17 13:45:00,64.4,57.7,30.02,West,275,6.0,16.0,79,0.00,,,0.00,WeatherTracker,2013-07-17 20:45:00,
2013-07-17 13:50:00,64.1,57.1,30.02,NNW,331,2.0,18.0,78,0.00,,,0.00,WeatherTracker,2013-07-17 20:50:00,
2013-07-17 13:55:00,64.6,57.6,30.02,West,261,10.0,18.0,78,0.00,,,0.00,WeatherTracker,2013-07-17 20:55:00,
2013-07-17 14:01:00,64.4,57.4,30.02,West,268,8.0,21.0,78,0.00,,,0.00,WeatherTracker,2013-07-17 21:01:00,
2013-07-17 14:06:00,64.1,57.1,30.02,WSW,257,12.0,21.0,78,0.00,,,0.00,WeatherTracker,2013-07-17 21:06:00,
2013-07-17 14:11:00,64.6,57.2,30.02,WSW,253,15.0,19.0,77,0.00,,,0.00,WeatherTracker,2013-07-17 21:11:00,
2013-07-17 14:16:00,64.7,57.0,30.01,West,279,4.0,17.0,76,0.00,,,0.00,WeatherTracker,2013-07-17 21:16:00,
2013-07-17 14:21:00,64.8,57.4,30.01,NNW,342,2.0,17.0,77,0.00,,,0.00,WeatherTracker,2013-07-17 21:21:00,
2013-07-17 14:26:00,64.9,57.1,30.01,NW,306,10.0,17.0,76,0.00,,,0.00,WeatherTracker,2013-07-17 21:26:00,
2013-07-17 14:31:00,64.8,57.4,30.01,NW,309,12.0,17.0,77,0.00,,,0.00,WeatherTracker,2013-07-17 21:31:00,
2013-07-17 14:36:00,64.9,57.1,30.01,WSW,252,18.0,20.0,76,0.00,,,0.00,WeatherTracker,2013-07-17 21:36:00,
2013-07-17 14:41:00,64.3,56.9,30.01,West,274,2.0,24.0,77,0.00,,,0.00,WeatherTracker,2013-07-17 21:41:00,
2013-07-17 14:46:00,64.3,57.3,30.01,WNW,285,9.0,24.0,78,0.00,,,0.00,WeatherTracker,2013-07-17 21:46:00,
2013-07-17 14:51:00,64.7,57.3,30.01,West,278,9.0,20.0,77,0.00,,,0.00,WeatherTracker,2013-07-17 21:51:00,
2013-07-17 14:56:00,64.9,57.1,30.01,West,268,7.0,19.0,76,0.00,,,0.00,WeatherTracker,2013-07-17 21:56:00,
2013-07-17 15:01:00,64.9,57.5,30.01,West,279,13.0,18.0,77,0.00,,,0.00,WeatherTracker,2013-07-17 22:01:00,
2013-07-17 15:06:00,64.9,57.1,30.01,WNW,293,6.0,18.0,76,0.00,,,0.00,WeatherTracker,2013-07-17 22:06:00,
2013-07-17 15:11:00,64.9,57.1,30.01,West,261,7.0,19.0,76,0.00,,,0.00,WeatherTracker,2013-07-17 22:11:00,
2013-07-17 15:17:00,64.6,56.9,30.01,West,263,16.0,19.0,76,0.00,,,0.00,WeatherTracker,2013-07-17 22:17:00,
2013-07-17 15:22:00,64.4,57.0,30.01,West,267,5.0,19.0,77,0.00,,,0.00,WeatherTracker,2013-07-17 22:22:00,
2013-07-17 15:27:00,64.8,57.4,30.01,West,263,10.0,19.0,77,0.00,,,0.00,WeatherTracker,2013-07-17 22:27:00,
2013-07-17 15:32:00,65.2,57.4,30.00,WNW,296,10.0,16.0,76,0.00,,,0.00,WeatherTracker,2013-07-17 22:32:00,
2013-07-17 15:37:00,65.1,57.3,30.00,WNW,289,12.0,21.0,76,0.00,,,0.00,WeatherTracker,2013-07-17 22:37:00,
2013-07-17 15:42:00,65.3,57.5,30.00,NW,304,2.0,21.0,76,0.00,,,0.00,WeatherTracker,2013-07-17 22:42:00,
2013-07-17 15:47:00,65.5,57.4,30.00,West,274,6.0,18.0,75,0.00,,,0.00,WeatherTracker,2013-07-17 22:47:00,
2013-07-17 15:52:00,65.5,57.4,30.00,West,267,10.0,20.0,75,0.00,,,0.00,WeatherTracker,2013-07-17 22:52:00,
2013-07-17 15:57:00,64.9,57.1,30.00,WNW,288,9.0,20.0,76,0.00,,,0.00,WeatherTracker,2013-07-17 22:57:00,
2013-07-17 16:02:00,65.2,57.1,30.00,WNW,293,6.0,20.0,75,0.00,,,0.00,WeatherTracker,2013-07-17 23:02:00,
2013-07-17 16:07:00,64.8,57.1,30.00,WNW,288,10.0,21.0,76,0.00,,,0.00,WeatherTracker,2013-07-17 23:07:00,
2013-07-17 16:12:00,64.6,57.2,30.00,NW,307,7.0,21.0,77,0.00,,,0.00,WeatherTracker,2013-07-17 23:12:00,
2013-07-17 16:17:00,65.0,57.2,29.99,NW,311,12.0,18.0,76,0.00,,,0.00,WeatherTracker,2013-07-17 23:17:00,
2013-07-17 16:22:00,64.9,57.5,29.99,NW,317,11.0,19.0,77,0.00,,,0.00,WeatherTracker,2013-07-17 23:22:00,
2013-07-17 16:27:00,65.0,57.2,29.99,SW,233,7.0,19.0,76,0.00,,,0.00,WeatherTracker,2013-07-17 23:27:00,
2013-07-17 16:33:00,64.3,56.6,29.99,West,273,4.0,17.0,76,0.00,,,0.00,WeatherTracker,2013-07-17 23:33:00,
2013-07-17 16:38:00,64.1,57.1,29.99,NNE,15,5.0,17.0,78,0.00,,,0.00,WeatherTracker,2013-07-17 23:38:00,
2013-07-17 16:43:00,63.8,56.8,29.99,WNW,300,13.0,17.0,78,0.00,,,0.00,WeatherTracker,2013-07-17 23:43:00,
2013-07-17 16:48:00,63.5,56.9,29.99,WNW,283,12.0,20.0,79,0.00,,,0.00,WeatherTracker,2013-07-17 23:48:00,
2013-07-17 16:53:00,63.2,56.2,29.99,WNW,286,6.0,20.0,78,0.00,,,0.00,WeatherTracker,2013-07-17 23:53:00,
2013-07-17 16:58:00,63.1,56.5,29.99,NW,317,6.0,18.0,79,0.00,,,0.00,WeatherTracker,2013-07-17 23:58:00,
2013-07-17 17:03:00,63.0,56.4,29.99,NW,309,6.0,15.0,79,0.00,,,0.00,WeatherTracker,2013-07-18 00:03:00,
2013-07-17 17:08:00,63.3,56.3,29.99,NW,316,9.0,17.0,78,0.00,,,0.00,WeatherTracker,2013-07-18 00:08:00,
2013-07-17 17:13:00,62.8,56.2,29.99,NNW,333,9.0,19.0,79,0.00,,,0.00,WeatherTracker,2013-07-18 00:13:00,
2013-07-17 17:18:00,62.3,56.0,29.99,WSW,253,10.0,19.0,80,0.00,,,0.00,WeatherTracker,2013-07-18 00:18:00,
2013-07-17 17:23:00,62.2,56.3,29.99,WNW,288,6.0,16.0,81,0.00,,,0.00,WeatherTracker,2013-07-18 00:23:00,
2013-07-17 17:28:00,62.6,56.3,29.99,WNW,287,7.0,18.0,80,0.00,,,0.00,WeatherTracker,2013-07-18 00:28:00,
2013-07-17 17:33:00,63.1,57.2,29.98,West,265,3.0,18.0,81,0.00,,,0.00,WeatherTracker,2013-07-18 00:33:00,
2013-07-17 17:38:00,63.8,57.5,29.98,West,265,3.0,7.0,80,0.00,,,0.00,WeatherTracker,2013-07-18 00:38:00,
2013-07-17 17:43:00,63.2,56.2,29.98,WNW,292,4.0,11.0,78,0.00,,,0.00,WeatherTracker,2013-07-18 00:43:00,
2013-07-17 17:48:00,63.0,56.7,29.98,SW,234,5.0,11.0,80,0.00,,,0.00,WeatherTracker,2013-07-18 00:48:00,
2013-07-17 17:53:00,62.8,56.5,29.98,SW,219,6.0,11.0,80,0.00,,,0.00,WeatherTracker,2013-07-18 00:53:00,
2013-07-17 17:58:00,62.5,56.2,29.98,WSW,238,2.0,11.0,80,0.00,,,0.00,WeatherTracker,2013-07-18 00:58:00,
2013-07-17 18:03:00,62.2,55.9,29.98,WNW,289,3.0,14.0,80,0.00,,,0.00,WeatherTracker,2013-07-18 01:03:00,
2013-07-17 18:08:00,62.3,56.4,29.98,West,271,7.0,14.0,81,0.00,,,0.00,WeatherTracker,2013-07-18 01:08:00,
2013-07-17 18:13:00,62.4,56.1,29.98,WNW,285,6.0,12.0,80,0.00,,,0.00,WeatherTracker,2013-07-18 01:13:00,
2013-07-17 18:18:00,62.1,55.9,29.98,West,267,13.0,13.0,80,0.00,,,0.00,WeatherTracker,2013-07-18 01:18:00,
2013-07-17 18:23:00,61.3,55.4,29.98,ENE,75,5.0,23.0,81,0.00,,,0.00,WeatherTracker,2013-07-18 01:23:00,
2013-07-17 18:28:00,61.7,56.1,29.98,WNW,286,6.0,23.0,82,0.00,,,0.00,WeatherTracker,2013-07-18 01:28:00,
2013-07-17 18:33:00,61.6,55.7,29.98,WSW,242,4.0,14.0,81,0.00,,,0.00,WeatherTracker,2013-07-18 01:33:00,
2013-07-17 18:38:00,61.3,55.8,29.98,ESE,118,5.0,16.0,82,0.00,,,0.00,WeatherTracker,2013-07-18 01:38:00,
2013-07-17 18:44:00,61.5,56.0,29.98,East,98,6.0,16.0,82,0.00,,,0.00,WeatherTracker,2013-07-18 01:44:00,
2013-07-17 18:49:00,61.6,56.0,29.98,West,261,4.0,7.0,82,0.00,,,0.00,WeatherTracker,2013-07-18 01:49:00,
2013-07-17 18:54:00,61.1,55.6,29.98,West,262,2.0,9.0,82,0.00,,,0.00,WeatherTracker,2013-07-18 01:54:00,
2013-07-17 18:59:00,60.8,55.6,29.98,SW,232,6.0,12.0,83,0.00,,,0.00,WeatherTracker,2013-07-18 01:59:00,
2013-07-17 19:02:00,61.0,55.8,29.98,West,271,3.0,12.0,83,0.00,,,0.00,WeatherTracker,2013-07-18 02:02:00,
2013-07-17 19:07:00,60.9,55.7,29.98,SE,130,3.0,12.0,83,0.00,,,0.00,WeatherTracker,2013-07-18 02:07:00,
2013-07-17 19:12:00,61.1,55.9,29.98,SE,131,0.0,5.0,83,0.00,,,0.00,WeatherTracker,2013-07-18 02:12:00,
2013-07-17 19:18:00,61.4,56.5,29.98,SE,131,0.0,4.0,84,0.00,,,0.00,WeatherTracker,2013-07-18 02:18:00,
2013-07-17 19:23:00,61.9,56.7,29.98,East,99,0.0,6.0,83,0.00,,,0.00,WeatherTracker,2013-07-18 02:23:00,
2013-07-17 19:28:00,61.6,56.4,29.98,South,171,3.0,6.0,83,0.00,,,0.00,WeatherTracker,2013-07-18 02:28:00,
2013-07-17 19:33:00,61.4,56.2,29.98,WSW,257,2.0,6.0,83,0.00,,,0.00,WeatherTracker,2013-07-18 02:33:00,
2013-07-17 19:38:00,61.0,55.8,29.98,West,264,2.0,7.0,83,0.00,,,0.00,WeatherTracker,2013-07-18 02:38:00,
2013-07-17 19:43:00,60.7,55.5,29.98,West,264,3.0,7.0,83,0.00,,,0.00,WeatherTracker,2013-07-18 02:43:00,
2013-07-17 19:48:00,60.5,55.6,29.98,WNW,284,10.0,10.0,84,0.00,,,0.00,WeatherTracker,2013-07-18 02:48:00,
2013-07-17 19:53:00,60.3,55.4,29.98,NW,309,0.0,13.0,84,0.00,,,0.00,WeatherTracker,2013-07-18 02:53:00,
2013-07-17 19:58:00,60.2,55.3,29.98,NW,310,2.0,13.0,84,0.00,,,0.00,WeatherTracker,2013-07-18 02:58:00,
2013-07-17 20:03:00,60.1,55.2,29.99,NW,311,0.0,3.0,84,0.00,,,0.00,WeatherTracker,2013-07-18 03:03:00,
2013-07-17 20:08:00,60.0,55.1,29.99,NW,311,2.0,3.0,84,0.00,,,0.00,WeatherTracker,2013-07-18 03:08:00,
2013-07-17 20:13:00,59.7,54.9,29.99,WNW,283,5.0,6.0,84,0.00,,,0.00,WeatherTracker,2013-07-18 03:13:00,
2013-07-17 20:18:00,59.4,54.9,29.99,WSW,252,5.0,10.0,85,0.00,,,0.00,WeatherTracker,2013-07-18 03:18:00,
2013-07-17 20:23:00,59.1,54.6,29.99,NW,306,0.0,10.0,85,0.00,,,0.00,WeatherTracker,2013-07-18 03:23:00,
2013-07-17 20:28:00,59.0,54.8,29.99,NW,314,0.0,7.0,86,0.00,,,0.00,WeatherTracker,2013-07-18 03:28:00,
2013-07-17 20:33:00,59.0,54.8,29.99,NW,314,0.0,3.0,86,0.00,,,0.00,WeatherTracker,2013-07-18 03:33:00,
2013-07-17 20:38:00,58.9,54.7,29.99,NW,313,0.0,4.0,86,0.00,,,0.00,WeatherTracker,2013-07-18 03:38:00,
2013-07-17 20:44:00,58.9,54.7,29.99,NW,313,3.0,4.0,86,0.00,,,0.00,WeatherTracker,2013-07-18 03:44:00,
2013-07-17 20:49:00,58.7,54.8,29.99,NW,313,2.0,4.0,87,0.00,,,0.00,WeatherTracker,2013-07-18 03:49:00,
2013-07-17 20:54:00,58.7,54.8,29.99,NW,315,0.0,4.0,87,0.00,,,0.00,WeatherTracker,2013-07-18 03:54:00,
2013-07-17 20:59:00,58.7,54.8,29.99,NW,319,1.0,4.0,87,0.00,,,0.00,WeatherTracker,2013-07-18 03:59:00,
2013-07-17 21:01:00,58.6,54.7,29.99,NW,319,0.0,4.0,87,0.00,,,0.00,WeatherTracker,2013-07-18 04:01:00,
2013-07-17 21:07:00,58.5,54.6,29.99,NW,319,1.0,4.0,87,0.00,,,0.00,WeatherTracker,2013-07-18 04:07:00,
2013-07-17 21:12:00,58.5,55.0,29.99,NW,319,3.0,4.0,88,0.00,,,0.00,WeatherTracker,2013-07-18 04:12:00,
2013-07-17 21:17:00,58.4,54.9,29.99,NW,319,1.0,4.0,88,0.00,,,0.00,WeatherTracker,2013-07-18 04:17:00,
2013-07-17 21:22:00,58.2,54.7,29.99,SW,235,5.0,6.0,88,0.00,,,0.00,WeatherTracker,2013-07-18 04:22:00,
2013-07-17 21:27:00,57.9,54.4,29.99,WSW,244,4.0,6.0,88,0.00,,,0.00,WeatherTracker,2013-07-18 04:27:00,
2013-07-17 21:32:00,57.7,54.2,29.99,WSW,244,0.0,6.0,88,0.00,,,0.00,WeatherTracker,2013-07-18 04:32:00,
2013-07-17 21:37:00,57.6,54.1,29.99,WSW,244,0.0,6.0,88,0.00,,,0.00,WeatherTracker,2013-07-18 04:37:00,
2013-07-17 21:42:00,57.6,54.4,29.99,WSW,244,0.0,3.0,89,0.00,,,0.00,WeatherTracker,2013-07-18 04:42:00,
2013-07-17 21:47:00,57.4,54.2,29.99,WSW,246,2.0,4.0,89,0.00,,,0.00,WeatherTracker,2013-07-18 04:47:00,
2013-07-17 21:52:00,57.3,54.1,29.99,WSW,246,0.0,4.0,89,0.00,,,0.00,WeatherTracker,2013-07-18 04:52:00,
2013-07-17 21:57:00,57.3,54.1,29.99,WSW,246,0.0,3.0,89,0.00,,,0.00,WeatherTracker,2013-07-18 04:57:00,
2013-07-17 22:02:00,57.3,54.1,30.00,WSW,246,2.0,3.0,89,0.00,,,0.00,WeatherTracker,2013-07-18 05:02:00,
2013-07-17 22:07:00,57.4,54.2,30.00,WSW,252,2.0,4.0,89,0.00,,,0.00,WeatherTracker,2013-07-18 05:07:00,
2013-07-17 22:12:00,57.4,54.2,30.00,West,259,0.0,5.0,89,0.00,,,0.00,WeatherTracker,2013-07-18 05:12:00,
2013-07-17 22:17:00,57.4,54.2,30.00,West,259,0.0,5.0,89,0.00,,,0.00,WeatherTracker,2013-07-18 05:17:00,
2013-07-17 22:22:00,57.3,54.1,30.00,West,259,0.0,3.0,89,0.00,,,0.00,WeatherTracker,2013-07-18 05:22:00,
2013-07-17 22:27:00,57.2,54.0,30.00,West,259,0.0,3.0,89,0.00,,,0.00,WeatherTracker,2013-07-18 05:27:00,
2013-07-17 22:32:00,57.1,53.9,30.00,West,259,0.0,2.0,89,0.00,,,0.00,WeatherTracker,2013-07-18 05:32:00,
2013-07-17 22:37:00,57.0,53.8,30.00,West,259,1.0,0.0,89,0.00,,,0.00,WeatherTracker,2013-07-18 05:37:00,
2013-07-17 22:42:00,56.9,53.7,30.00,West,259,0.0,3.0,89,0.00,,,0.00,WeatherTracker,2013-07-18 05:42:00,
2013-07-17 22:48:00,56.8,53.6,30.00,West,259,0.0,3.0,89,0.00,,,0.00,WeatherTracker,2013-07-18 05:48:00,
2013-07-17 22:53:00,56.7,53.5,30.00,West,259,0.0,0.0,89,0.00,,,0.00,WeatherTracker,2013-07-18 05:53:00,
2013-07-17 22:58:00,56.7,53.5,30.00,West,259,0.0,1.0,89,0.00,,,0.00,WeatherTracker,2013-07-18 05:58:00,
2013-07-17 23:03:00,56.6,53.7,30.01,West,259,0.0,2.0,90,0.00,,,0.00,WeatherTracker,2013-07-18 06:03:00,
2013-07-17 23:08:00,56.5,53.6,30.01,West,259,0.0,2.0,90,0.00,,,0.00,WeatherTracker,2013-07-18 06:08:00,
2013-07-17 23:13:00,56.5,53.6,30.01,West,259,0.0,1.0,90,0.00,,,0.00,WeatherTracker,2013-07-18 06:13:00,
2013-07-17 23:18:00,56.4,53.5,30.00,West,259,0.0,0.0,90,0.00,,,0.00,WeatherTracker,2013-07-18 06:18:00,
2013-07-17 23:23:00,56.4,53.5,30.00,West,259,0.0,0.0,90,0.00,,,0.00,WeatherTracker,2013-07-18 06:23:00,
2013-07-17 23:28:00,56.4,53.5,30.00,West,259,4.0,4.0,90,0.00,,,0.00,WeatherTracker,2013-07-18 06:28:00,
2013-07-17 23:33:00,56.5,53.6,30.00,West,259,0.0,4.0,90,0.00,,,0.00,WeatherTracker,2013-07-18 06:33:00,
2013-07-17 23:38:00,56.5,53.6,30.00,West,260,0.0,4.0,90,0.00,,,0.00,WeatherTracker,2013-07-18 06:38:00,
2013-07-17 23:43:00,56.4,53.5,30.00,West,261,1.0,4.0,90,0.00,,,0.00,WeatherTracker,2013-07-18 06:43:00,
2013-07-17 23:48:00,56.4,53.5,30.00,West,261,4.0,4.0,90,0.00,,,0.00,WeatherTracker,2013-07-18 06:48:00,
2013-07-17 23:53:00,56.4,53.5,30.00,West,261,0.0,4.0,90,0.00,,,0.00,WeatherTracker,2013-07-18 06:53:00,
2013-07-17 23:58:00,56.4,53.5,30.00,West,261,0.0,4.0,90,0.00,,,0.00,WeatherTracker,2013-07-18 06:58:00,